| time (UTC) | temp C | wind direction | speed KPH | gust KPH | rain 1hr cm | rain 24hr cm | rain mn cm | humidity % | barometer mb |
| 20260901161600 | 22 | 263 | 4.8 | 19.3 | 0.00 | 0.03 | 0.00 | 67 | 1014.1 |
| 20260901160103 | 22 | 279 | 4.8 | 20.9 | 0.00 | 0.03 | 0.00 | 67 | 1014.2 |
| 20260901154615 | 21 | 294 | 6.4 | 20.9 | 0.00 | 0.03 | 0.00 | 70 | 1014.4 |
| 20260901153113 | 21 | 200 | 6.4 | 20.9 | 0.00 | 0.03 | 0.00 | 71 | 1014.3 |
| 20260901151557 | 20 | 257 | 4.8 | 16.1 | 0.00 | 0.03 | 0.00 | 74 | 1014.1 |
| 20260901150103 | 20 | 186 | 4.8 | 12.9 | 0.00 | 0.03 | 0.00 | 80 | 1014.0 |
| 20260901144552 | 18 | 273 | 3.2 | 14.5 | 0.00 | 0.03 | 0.00 | 84 | 1014.0 |
| 20260901143057 | 18 | 235 | 4.8 | 11.3 | 0.00 | 0.03 | 0.00 | 86 | 1013.8 |
| 20260901141604 | 17 | 188 | 3.2 | 8.0 | 0.00 | 0.03 | 0.00 | 91 | 1014.1 |
| 20260901140055 | 16 | 227 | 0.0 | 6.4 | 0.00 | 0.03 | 0.00 | 94 | 1013.9 |
| 20260901134601 | 15 | 227 | 1.6 | 6.4 | 0.00 | 0.03 | 0.00 | 95 | 1014.0 |
| 20260901133105 | 14 | 0 | 0.0 | 0.0 | 0.00 | 0.03 | 0.00 | 99 | 1014.2 |
| 20260901131603 | 13 | 0 | 0.0 | 4.8 | 0.00 | 0.03 | 0.00 | 99 | 1014.2 |
| 20260901124605 | 10 | 0 | 0.0 | 0.0 | 0.00 | 0.03 | 0.00 | 99 | 1014.1 |
| 20260901123055 | 10 | 0 | 0.0 | 0.0 | 0.00 | 0.03 | 0.00 | 98 | 1014.1 |
| 20260901121603 | 10 | 0 | 0.0 | 0.0 | 0.00 | 0.03 | 0.00 | 98 | 1013.9 |
| 20260901120118 | 9 | 0 | 0.0 | 0.0 | 0.00 | 0.03 | 0.00 | 98 | 1013.8 |
| 20260901114556 | 9 | 0 | 0.0 | 0.0 | 0.00 | 0.03 | 0.00 | 98 | 1013.9 |
| 20260901113101 | 9 | 0 | 0.0 | 0.0 | 0.00 | 0.03 | 0.00 | 97 | 1013.6 |
| 20260901111557 | 9 | 0 | 0.0 | 0.0 | 0.00 | 0.03 | 0.00 | 97 | 1013.6 |
| 20260901110058 | 10 | 0 | 0.0 | 0.0 | 0.00 | 0.03 | 0.00 | 97 | 1013.4 |
| 20260901104603 | 10 | 0 | 0.0 | 0.0 | 0.00 | 0.15 | 0.00 | 97 | 1013.4 |
| 20260901103102 | 10 | 0 | 0.0 | 0.0 | 0.00 | 0.15 | 0.00 | 97 | 1013.3 |
| 20260901101556 | 10 | 0 | 0.0 | 0.0 | 0.00 | 0.15 | 0.00 | 98 | 1013.4 |
| 20260901100056 | 10 | 0 | 0.0 | 0.0 | 0.00 | 0.15 | 0.00 | 97 | 1013.4 |
| 20260901094603 | 10 | 0 | 0.0 | 0.0 | 0.00 | 0.64 | 0.00 | 97 | 1013.4 |
| 20260901093059 | 10 | 0 | 0.0 | 0.0 | 0.00 | 0.64 | 0.00 | 97 | 1013.3 |
| 20260901091554 | 11 | 0 | 0.0 | 0.0 | 0.00 | 0.64 | 0.00 | 97 | 1013.1 |
| 20260901084604 | 11 | 0 | 0.0 | 0.0 | 0.00 | 0.64 | 0.00 | 98 | 1013.2 |
| 20260901083057 | 11 | 0 | 0.0 | 0.0 | 0.00 | 0.64 | 0.00 | 97 | 1013.0 |
| 20260901081554 | 11 | 0 | 0.0 | 0.0 | 0.00 | 0.64 | 0.00 | 97 | 1013.1 |
| 20260901080056 | 11 | 0 | 0.0 | 0.0 | 0.00 | 0.64 | 0.00 | 97 | 1013.0 |
| 20260901074604 | 11 | 0 | 0.0 | 0.0 | 0.00 | 0.64 | 0.00 | 97 | 1013.3 |
| 20260901073055 | 11 | 0 | 0.0 | 0.0 | 0.00 | 0.64 | 0.00 | 96 | 1013.4 |
| 20260901071605 | 12 | 0 | 0.0 | 0.0 | 0.00 | 0.64 | 0.00 | 97 | 1013.4 |
| 20260901070106 | 12 | 0 | 0.0 | 0.0 | 0.00 | 0.64 | 0.00 | 96 | 1013.4 |
| 20260901064600 | 12 | 0 | 0.0 | 0.0 | 0.00 | 0.81 | 0.00 | 96 | 1013.3 |
| 20260901063113 | 12 | 0 | 0.0 | 0.0 | 0.00 | 0.81 | 0.00 | 96 | 1013.3 |
| 20260901061621 | 12 | 0 | 0.0 | 0.0 | 0.00 | 0.81 | 0.00 | 96 | 1013.2 |
| 20260901060105 | 13 | 0 | 0.0 | 0.0 | 0.00 | 0.81 | 0.00 | 97 | 1013.1 |
| 20260901054602 | 13 | 0 | 0.0 | 0.0 | 0.00 | 1.07 | 0.00 | 96 | 1013.2 |
| 20260901053100 | 13 | 0 | 0.0 | 0.0 | 0.00 | 1.07 | 0.00 | 96 | 1013.2 |
| 20260901051613 | 13 | 0 | 0.0 | 0.0 | 0.00 | 1.07 | 0.00 | 96 | 1013.2 |
| 20260901050109 | 13 | 0 | 0.0 | 0.0 | 0.00 | 1.07 | 0.00 | 95 | 1013.2 |
| 20260901044604 | 14 | 0 | 0.0 | 0.0 | 0.00 | 1.07 | 1.07 | 96 | 1013.3 |
| 20260901043057 | 14 | 0 | 0.0 | 0.0 | 0.00 | 1.07 | 1.07 | 96 | 1013.3 |
| 20260901041552 | 14 | 0 | 0.0 | 0.0 | 0.00 | 1.07 | 1.07 | 95 | 1013.2 |
| 20260901040052 | 15 | 0 | 0.0 | 0.0 | 0.00 | 1.07 | 1.07 | 95 | 1013.3 |
| 20260901034607 | 15 | 0 | 0.0 | 0.0 | 0.00 | 1.07 | 1.07 | 94 | 1013.2 |
| 20260901033110 | 15 | 0 | 0.0 | 0.0 | 0.00 | 1.07 | 1.07 | 94 | 1013.2 |
| 20260901031556 | 15 | 0 | 0.0 | 0.0 | 0.00 | 1.07 | 1.07 | 94 | 1013.2 |
| 20260901030054 | 16 | 0 | 0.0 | 0.0 | 0.00 | 1.07 | 1.07 | 93 | 1013.2 |
| 20260901024602 | 16 | 0 | 0.0 | 0.0 | 0.00 | 1.07 | 1.07 | 93 | 1013.2 |
| 20260901023056 | 16 | 0 | 0.0 | 0.0 | 0.00 | 1.07 | 1.07 | 92 | 1013.0 |
| 20260901021553 | 16 | 0 | 0.0 | 0.0 | 0.00 | 1.07 | 1.07 | 92 | 1013.2 |
| 20260901020101 | 17 | 0 | 0.0 | 0.0 | 0.00 | 1.07 | 1.07 | 90 | 1013.1 |
| 20260901014607 | 17 | 0 | 0.0 | 0.0 | 0.00 | 1.07 | 1.07 | 89 | 1012.9 |
| 20260901013101 | 18 | 0 | 0.0 | 0.0 | 0.00 | 1.07 | 1.07 | 88 | 1012.6 |
| 20260901011607 | 18 | 0 | 0.0 | 0.0 | 0.00 | 1.07 | 1.07 | 86 | 1012.5 |
| 20260901010058 | 20 | 0 | 0.0 | 0.0 | 0.00 | 1.07 | 1.07 | 83 | 1012.4 |
| 20260901004618 | 21 | 0 | 0.0 | 0.0 | 0.00 | 1.07 | 1.07 | 79 | 1012.1 |
| 20260901003101 | 22 | 0 | 0.0 | 0.0 | 0.00 | 1.07 | 1.07 | 75 | 1012.0 |
| 20260901001606 | 23 | 0 | 0.0 | 0.0 | 0.00 | 1.07 | 1.07 | 70 | 1011.9 |
| 20260901000109 | 25 | 0 | 0.0 | 4.8 | 0.00 | 1.07 | 1.07 | 67 | 1012.0 |
| 20260831234609 | 26 | 0 | 0.0 | 6.4 | 0.00 | 1.07 | 1.07 | 61 | 1011.9 |
| 20260831233105 | 25 | 211 | 0.0 | 4.8 | 0.00 | 1.07 | 1.07 | 61 | 1012.0 |
| 20260831231609 | 25 | 0 | 0.0 | 6.4 | 0.00 | 1.07 | 1.07 | 60 | 1012.0 |
| 20260831230059 | 25 | 319 | 0.0 | 6.4 | 0.00 | 1.07 | 1.07 | 54 | 1011.9 |
| 20260831224558 | 25 | 335 | 0.0 | 9.7 | 0.00 | 1.07 | 1.07 | 52 | 1011.8 |
| 20260831223106 | 26 | 199 | 0.0 | 11.3 | 0.00 | 1.07 | 1.07 | 52 | 1011.9 |
| 20260831221610 | 26 | 0 | 0.0 | 6.4 | 0.00 | 1.07 | 1.07 | 53 | 1011.9 |
| 20260831220103 | 26 | 294 | 0.0 | 11.3 | 0.00 | 1.07 | 1.07 | 50 | 1011.8 |
| 20260831214607 | 26 | 0 | 1.6 | 11.3 | 0.00 | 1.07 | 1.07 | 50 | 1011.7 |
| 20260831213101 | 27 | 40 | 3.2 | 9.7 | 0.00 | 1.07 | 1.07 | 51 | 1011.8 |
| 20260831211601 | 27 | 287 | 1.6 | 11.3 | 0.00 | 1.07 | 1.07 | 51 | 1012.0 |
| 20260831210106 | 27 | 263 | 3.2 | 11.3 | 0.00 | 1.07 | 1.07 | 49 | 1012.0 |
| 20260831204553 | 27 | 304 | 4.8 | 16.1 | 0.00 | 1.07 | 1.07 | 56 | 1012.0 |
| 20260831203107 | 27 | 242 | 3.2 | 12.9 | 0.00 | 1.07 | 1.07 | 62 | 1011.7 |
| 20260831201559 | 26 | 288 | 4.8 | 14.5 | 0.00 | 1.07 | 1.07 | 64 | 1011.8 |
| 20260831200059 | 26 | 184 | 4.8 | 19.3 | 0.00 | 1.07 | 1.07 | 64 | 1011.7 |
| 20260831194615 | 26 | 317 | 3.2 | 17.7 | 0.00 | 1.07 | 1.07 | 66 | 1011.6 |
| 20260831193104 | 26 | 279 | 3.2 | 16.1 | 0.00 | 1.07 | 1.07 | 76 | 1011.4 |
| 20260831191606 | 25 | 230 | 3.2 | 12.9 | 0.00 | 1.07 | 1.07 | 78 | 1011.4 |
| 20260831190118 | 25 | 0 | 1.6 | 14.5 | 0.00 | 1.07 | 1.07 | 84 | 1011.6 |
| 20260831184559 | 23 | 228 | 1.6 | 14.5 | 0.00 | 1.07 | 1.07 | 85 | 1011.4 |
| 20260831183101 | 23 | 232 | 1.6 | 14.5 | 0.00 | 1.07 | 1.07 | 87 | 1011.5 |
| 20260831181604 | 22 | 277 | 6.4 | 14.5 | 0.00 | 1.07 | 1.07 | 92 | 1011.5 |
| 20260831180105 | 22 | 232 | 1.6 | 9.7 | 0.00 | 1.07 | 1.07 | 93 | 1011.6 |
| 20260831174623 | 21 | 285 | 1.6 | 9.7 | 0.00 | 1.07 | 1.07 | 95 | 1011.6 |
| 20260831173053 | 21 | 227 | 0.0 | 6.4 | 0.00 | 1.07 | 1.07 | 97 | 1011.4 |
| 20260831171603 | 21 | 0 | 0.0 | 8.0 | 0.00 | 1.07 | 1.07 | 98 | 1011.5 |
| 20260831170058 | 20 | 0 | 1.6 | 6.4 | 0.03 | 1.07 | 1.07 | 98 | 1011.8 |
| 20260831164605 | 20 | 276 | 1.6 | 11.3 | 0.03 | 1.07 | 1.07 | 98 | 1011.7 |
| 20260831163107 | 20 | 0 | 0.0 | 4.8 | 0.03 | 1.07 | 1.07 | 98 | 1011.6 |